JST7 YMML-WSSS

Flight info

Callsign JST7
Flight time N/A
Altitude 38000
Route KEPPA Q168 WR T29 VIRUV/N0489F400 T29 CIN A576 ATMAP M635 SURGA T23 UGEBO UGEBO1B
Aircraft B788/H-SDE1E2E3FGHIJ2J3J4J5M1RWXY/LB1D1

Departure

Time 2026-05-04 10:10
Airport Melbourne Airport (YMML)

Arrival

Time N/A
Airport Singapore Changi Airport (WSSS)
Time Latitude Longitude Altitude Speed Heading
2026-05-04 09:23 -37.66727 144.85302 401 ft 0 kts 262°
2026-05-04 09:23 -37.66730 144.85280 401 ft 0 kts 262°
2026-05-04 09:42 -37.66724 144.85335 400 ft 3 kts 292°
2026-05-04 09:43 -37.66736 144.85358 390 ft 3 kts 334°
2026-05-04 09:43 -37.66753 144.85369 398 ft 3 kts 333°
2026-05-04 09:43 -37.66771 144.85381 395 ft 3 kts 348°
2026-05-04 09:43 -37.66773 144.85381 395 ft 0 kts 348°
2026-05-04 09:49 -37.66728 144.85372 399 ft 0 kts 352°
2026-05-04 09:49 -37.66718 144.85371 394 ft 2 kts 352°
2026-05-04 09:49 -37.66708 144.85370 398 ft 1 kts 354°
2026-05-04 09:51 -37.66588 144.85323 401 ft 2 kts 311°
2026-05-04 09:51 -37.66572 144.85295 403 ft 5 kts 303°
2026-05-04 09:51 -37.66567 144.85279 404 ft 0 kts 287°
2026-05-04 09:52 -37.66568 144.85275 404 ft 0 kts 274°
2026-05-04 09:52 -37.66569 144.85259 403 ft 2 kts 266°
2026-05-04 09:52 -37.66569 144.85256 404 ft 0 kts 263°
2026-05-04 09:52 -37.66573 144.85234 405 ft 6 kts 259°
2026-05-04 09:53 -37.66584 144.85152 408 ft 12 kts 261°
2026-05-04 09:53 -37.66552 144.85057 407 ft 13 kts 308°
2026-05-04 09:53 -37.66537 144.84956 408 ft 9 kts 263°
2026-05-04 09:53 -37.66551 144.84824 406 ft 28 kts 256°
2026-05-04 09:54 -37.66650 144.84608 403 ft 2 kts 263°
2026-05-04 09:54 -37.66649 144.84605 404 ft 2 kts 269°
2026-05-04 09:54 -37.66648 144.84594 406 ft 2 kts 276°
2026-05-04 09:54 -37.66648 144.84586 406 ft 0 kts 273°
2026-05-04 09:55 -37.66650 144.84570 405 ft 6 kts 262°
2026-05-04 09:55 -37.66666 144.84467 404 ft 17 kts 258°
2026-05-04 09:55 -37.66691 144.84301 397 ft 23 kts 260°
2026-05-04 09:55 -37.66746 144.84191 396 ft 13 kts 201°
2026-05-04 09:56 -37.66848 144.84205 396 ft 18 kts 171°
2026-05-04 09:56 -37.66982 144.84228 392 ft 18 kts 172°
2026-05-04 09:56 -37.67086 144.84247 390 ft 10 kts 171°
2026-05-04 09:56 -37.67170 144.84263 388 ft 7 kts 171°
2026-05-04 09:57 -37.67205 144.84270 387 ft 1 kts 171°
2026-05-04 09:57 -37.67226 144.84274 387 ft 5 kts 173°
2026-05-04 09:57 -37.67272 144.84283 386 ft 8 kts 171°
2026-05-04 09:57 -37.67342 144.84297 385 ft 12 kts 172°
2026-05-04 09:58 -37.67435 144.84313 382 ft 12 kts 171°
2026-05-04 09:58 -37.67507 144.84327 381 ft 9 kts 171°
2026-05-04 09:58 -37.67585 144.84341 378 ft 13 kts 172°
2026-05-04 10:00 -37.68294 144.84475 361 ft 8 kts 172°
2026-05-04 10:00 -37.68335 144.84477 360 ft 7 kts 192°
2026-05-04 10:02 -37.68496 144.84345 358 ft 0 kts 216°
2026-05-04 10:05 -37.68513 144.84327 357 ft 4 kts 223°
2026-05-04 10:05 -37.68537 144.84285 354 ft 7 kts 240°
2026-05-04 10:05 -37.68548 144.84250 354 ft 0 kts 253°
2026-05-04 10:06 -37.68548 144.84249 357 ft 3 kts 253°
2026-05-04 10:08 -37.68549 144.84243 357 ft 3 kts 254°
2026-05-04 10:08 -37.68551 144.84197 351 ft 8 kts 277°
2026-05-04 10:08 -37.68516 144.84108 359 ft 11 kts 312°
2026-05-04 10:09 -37.68434 144.84075 354 ft 19 kts 352°
2026-05-04 10:09 -37.68108 144.84008 359 ft 80 kts 351°
2026-05-04 10:09 -37.67349 144.83865 379 ft 138 kts 352°
2026-05-04 10:09 -37.66289 144.83653 836 ft 156 kts 345°
2026-05-04 10:10 -37.65273 144.83462 2007 ft 144 kts 346°
2026-05-04 10:10 -37.64241 144.83294 2674 ft 152 kts 344°
2026-05-04 10:10 -37.63157 144.83086 3247 ft 166 kts 341°
2026-05-04 10:10 -37.62001 144.82841 3928 ft 174 kts 342°
2026-05-04 10:11 -37.60721 144.82588 4473 ft 192 kts 344°
2026-05-04 10:11 -37.59352 144.82357 5069 ft 211 kts 345°
2026-05-04 10:11 -37.57791 144.82078 5575 ft 238 kts 345°
2026-05-04 10:11 -37.56164 144.81510 6107 ft 250 kts 324°
2026-05-04 10:12 -37.54776 144.80229 7130 ft 249 kts 316°
2026-05-04 10:12 -37.53456 144.78783 8131 ft 252 kts 314°
2026-05-04 10:12 -37.52144 144.77284 9067 ft 257 kts 315°
2026-05-04 10:12 -37.50793 144.75765 9921 ft 265 kts 315°
2026-05-04 10:13 -37.49369 144.74185 10418 ft 285 kts 315°
2026-05-04 10:13 -37.47811 144.72452 10642 ft 313 kts 315°
2026-05-04 10:13 -37.46135 144.70589 11227 ft 324 kts 315°
2026-05-04 10:13 -37.44439 144.68711 12099 ft 327 kts 315°
2026-05-04 10:14 -37.42716 144.66796 12912 ft 332 kts 315°
2026-05-04 10:14 -37.40974 144.64859 13716 ft 336 kts 315°
2026-05-04 10:16 -37.28190 144.50709 18583 ft 362 kts 316°
2026-05-04 10:16 -37.26290 144.48612 19149 ft 366 kts 316°
2026-05-04 10:16 -37.24391 144.46516 19708 ft 369 kts 316°
2026-05-04 10:16 -37.22456 144.44382 20284 ft 371 kts 316°
2026-05-04 10:17 -37.20510 144.42238 20864 ft 374 kts 316°
2026-05-04 10:17 -37.18551 144.40082 21404 ft 376 kts 316°
2026-05-04 10:19 -37.04509 144.24668 24675 ft 390 kts 316°
2026-05-04 10:19 -37.02451 144.22416 25001 ft 394 kts 316°
2026-05-04 10:19 -37.00414 144.20187 25371 ft 395 kts 316°
2026-05-04 10:19 -36.98334 144.17915 25756 ft 397 kts 316°
2026-05-04 10:20 -36.96245 144.15634 26141 ft 399 kts 316°
2026-05-04 10:20 -36.94147 144.13344 26510 ft 402 kts 316°
2026-05-04 10:20 -36.92037 144.11043 26879 ft 404 kts 316°
2026-05-04 10:20 -36.89914 144.08731 27264 ft 406 kts 316°
2026-05-04 10:21 -36.87780 144.06408 27615 ft 408 kts 316°
2026-05-04 10:21 -36.85634 144.04073 27979 ft 410 kts 316°
2026-05-04 10:21 -36.83475 144.01726 28344 ft 412 kts 316°
2026-05-04 10:21 -36.81303 143.99367 28706 ft 415 kts 316°
2026-05-04 10:22 -36.77296 143.94188 29377 ft 416 kts 308°
2026-05-04 10:22 -36.75387 143.91463 29743 ft 418 kts 308°
2026-05-04 10:22 -36.73467 143.88716 30073 ft 421 kts 308°
2026-05-04 10:23 -36.71566 143.85995 30352 ft 423 kts 308°
2026-05-04 10:23 -36.69630 143.83226 30650 ft 424 kts 308°
2026-05-04 10:25 -36.55806 143.63543 32429 ft 438 kts 308°
2026-05-04 10:25 -36.53797 143.60693 32707 ft 439 kts 308°
2026-05-04 10:25 -36.51781 143.57834 32944 ft 440 kts 308°
2026-05-04 10:25 -36.49760 143.54970 33200 ft 440 kts 308°
2026-05-04 10:26 -36.47741 143.52114 33530 ft 440 kts 308°
2026-05-04 10:26 -36.45718 143.49253 33734 ft 442 kts 307°
2026-05-04 10:26 -36.43679 143.46371 33803 ft 446 kts 307°
2026-05-04 10:26 -36.41631 143.43478 34057 ft 446 kts 307°
2026-05-04 10:27 -36.39569 143.40570 34255 ft 447 kts 307°
2026-05-04 10:27 -36.37515 143.37677 34507 ft 447 kts 307°
2026-05-04 10:27 -36.35480 143.34811 34750 ft 447 kts 307°
2026-05-04 10:27 -36.33429 143.31924 34980 ft 446 kts 307°
2026-05-04 10:28 -36.31375 143.29036 35222 ft 446 kts 307°
2026-05-04 10:28 -36.29324 143.26156 35474 ft 446 kts 307°
2026-05-04 10:28 -36.27265 143.23269 35673 ft 446 kts 307°
2026-05-04 10:28 -36.25209 143.20385 35891 ft 446 kts 307°
2026-05-04 10:29 -36.23154 143.17505 36130 ft 446 kts 307°
2026-05-04 10:29 -36.21097 143.14626 36363 ft 445 kts 307°
2026-05-04 10:29 -36.19036 143.11744 36595 ft 445 kts 307°
2026-05-04 10:29 -36.17010 143.08914 36844 ft 445 kts 307°
2026-05-04 10:30 -36.14960 143.06052 37081 ft 444 kts 307°
2026-05-04 10:30 -36.12909 143.03190 37336 ft 443 kts 307°
2026-05-04 10:30 -36.10864 143.00341 37551 ft 443 kts 307°
2026-05-04 10:30 -36.08822 142.97497 37779 ft 443 kts 307°
2026-05-04 10:31 -36.06767 142.94636 37886 ft 445 kts 307°
2026-05-04 10:31 -36.04709 142.91775 38022 ft 446 kts 307°
2026-05-04 10:32 -35.92269 142.74535 38057 ft 446 kts 307°
2026-05-04 10:33 -35.88121 142.68804 38056 ft 448 kts 307°
2026-05-04 10:33 -35.83962 142.63071 38061 ft 448 kts 307°
2026-05-04 10:34 -35.79800 142.57340 38063 ft 449 kts 307°
2026-05-04 10:34 -35.75632 142.51613 38056 ft 449 kts 307°
2026-05-04 10:35 -35.71457 142.45885 38068 ft 449 kts 308°
2026-05-04 10:35 -35.67277 142.40162 38075 ft 449 kts 308°
2026-05-04 10:36 -35.63095 142.34444 38078 ft 449 kts 308°
2026-05-04 10:36 -35.58951 142.28789 38076 ft 448 kts 308°
2026-05-04 10:37 -35.54785 142.23112 38076 ft 448 kts 308°
2026-05-04 10:37 -35.50611 142.17435 38079 ft 448 kts 308°
2026-05-04 10:39 -35.35930 141.97538 38095 ft 450 kts 308°
2026-05-04 10:40 -35.31755 141.91903 38093 ft 448 kts 308°
2026-05-04 10:40 -35.27565 141.86255 38099 ft 448 kts 308°
2026-05-04 10:41 -35.23366 141.80604 38096 ft 449 kts 308°
2026-05-04 10:41 -35.19143 141.74932 38104 ft 451 kts 309°
2026-05-04 10:42 -35.14922 141.69271 38102 ft 450 kts 309°
2026-05-04 10:42 -35.10705 141.63625 38102 ft 449 kts 309°
2026-05-04 10:43 -35.06497 141.58000 38107 ft 448 kts 309°
2026-05-04 10:45 -34.90371 141.36531 38099 ft 450 kts 309°
2026-05-04 10:45 -34.86136 141.30918 38120 ft 449 kts 309°
2026-05-04 10:46 -34.81925 141.25341 38115 ft 446 kts 309°
2026-05-04 10:46 -34.77723 141.19788 38112 ft 446 kts 309°
2026-05-04 10:47 -34.73509 141.14229 38118 ft 447 kts 309°
2026-05-04 10:47 -34.69281 141.08659 38124 ft 449 kts 309°
2026-05-04 10:49 -34.52326 140.86414 38128 ft 448 kts 309°
2026-05-04 10:50 -34.48074 140.80859 38132 ft 449 kts 310°
2026-05-04 10:52 -34.31047 140.58697 38136 ft 451 kts 310°
2026-05-04 10:52 -34.26766 140.53149 38139 ft 450 kts 310°
2026-05-04 10:54 -34.09689 140.31101 38150 ft 450 kts 310°
2026-05-04 10:56 -33.92584 140.09155 38153 ft 451 kts 310°
2026-05-04 10:57 -33.88276 140.03649 38159 ft 451 kts 310°
2026-05-04 10:57 -33.83976 139.98163 38161 ft 450 kts 310°
2026-05-04 10:58 -33.79669 139.92676 38153 ft 452 kts 310°
2026-05-04 10:58 -33.75340 139.87170 38156 ft 453 kts 311°
2026-05-04 10:59 -33.71015 139.81678 38139 ft 452 kts 311°
2026-05-04 10:59 -33.66705 139.76214 38167 ft 450 kts 311°
2026-05-04 11:00 -33.62425 139.70794 38164 ft 450 kts 311°
2026-05-04 11:02 -33.45115 139.48965 38176 ft 453 kts 311°
2026-05-04 11:05 -33.11999 139.08943 38190 ft 453 kts 312°
2026-05-04 11:06 -33.07519 139.03608 38193 ft 455 kts 312°
2026-05-04 11:06 -33.03039 138.98280 38192 ft 453 kts 313°
2026-05-04 11:10 -32.71693 138.61224 38202 ft 455 kts 313°
2026-05-04 11:12 -32.53663 138.40087 38204 ft 454 kts 313°
2026-05-04 11:12 -32.49168 138.34836 38194 ft 454 kts 313°
2026-05-04 11:13 -32.44667 138.29587 38191 ft 454 kts 313°
2026-05-04 11:13 -32.40154 138.24331 38197 ft 455 kts 313°
2026-05-04 11:14 -32.35666 138.19112 38194 ft 455 kts 313°
2026-05-04 11:16 -32.17561 137.98137 38191 ft 456 kts 313°
2026-05-04 11:16 -32.13019 137.92893 38203 ft 457 kts 313°
2026-05-04 11:17 -32.08472 137.87653 38205 ft 456 kts 313°
2026-05-04 11:19 -31.90290 137.66773 38197 ft 458 kts 313°
2026-05-04 11:19 -31.85750 137.61578 38198 ft 457 kts 313°
2026-05-04 11:20 -31.81182 137.56359 38197 ft 458 kts 313°
2026-05-04 11:20 -31.76605 137.51137 38206 ft 459 kts 313°
2026-05-04 11:22 -31.58329 137.30361 38207 ft 457 kts 313°
2026-05-04 11:23 -31.53752 137.25177 38208 ft 457 kts 313°
2026-05-04 11:25 -31.37738 137.07098 38209 ft 455 kts 313°
2026-05-04 11:25 -31.33201 137.01991 38207 ft 454 kts 313°
2026-05-04 11:27 -31.12638 136.79060 38215 ft 456 kts 315°
2026-05-04 11:28 -31.07941 136.74058 38215 ft 457 kts 314°
2026-05-04 11:28 -31.03216 136.69075 38219 ft 458 kts 315°
2026-05-04 11:29 -30.98503 136.64099 38215 ft 455 kts 315°
2026-05-04 11:29 -30.93841 136.59184 38215 ft 454 kts 315°
2026-05-04 11:33 -30.61630 136.25417 38234 ft 456 kts 315°
2026-05-04 11:33 -30.56951 136.20537 38233 ft 455 kts 315°
2026-05-04 11:34 -30.52250 136.15642 38236 ft 454 kts 315°
2026-05-04 11:34 -30.47538 136.10742 38235 ft 455 kts 315°
2026-05-04 11:35 -30.42807 136.05829 38238 ft 457 kts 315°
2026-05-04 11:35 -30.38064 136.00910 38249 ft 458 kts 315°
2026-05-04 11:36 -30.33324 135.96002 38240 ft 456 kts 315°
2026-05-04 11:36 -30.28590 135.91105 38237 ft 456 kts 315°
2026-05-04 11:37 -30.23895 135.86256 38234 ft 454 kts 315°
2026-05-04 11:37 -30.19179 135.81391 38236 ft 454 kts 315°
2026-05-04 11:38 -30.14446 135.76515 38237 ft 456 kts 315°
2026-05-04 11:38 -30.09695 135.71628 38242 ft 458 kts 315°
2026-05-04 11:39 -30.04939 135.66742 38239 ft 456 kts 315°
2026-05-04 11:41 -29.88391 135.49792 38243 ft 456 kts 315°
2026-05-04 11:41 -29.83639 135.44940 38245 ft 457 kts 315°
2026-05-04 11:42 -29.78879 135.40084 38250 ft 457 kts 315°
2026-05-04 11:42 -29.74112 135.35229 38245 ft 458 kts 315°
2026-05-04 11:43 -29.69331 135.30367 38248 ft 459 kts 315°
2026-05-04 11:43 -29.64555 135.25515 38248 ft 458 kts 315°
2026-05-04 11:44 -29.59787 135.20678 38245 ft 457 kts 315°
2026-05-04 11:44 -29.55027 135.15855 38257 ft 455 kts 315°
2026-05-04 11:45 -29.50311 135.11084 38251 ft 454 kts 315°
2026-05-04 11:45 -29.45564 135.06287 38252 ft 455 kts 315°
2026-05-04 11:46 -29.40808 135.01486 38245 ft 456 kts 315°
2026-05-04 11:46 -29.36031 134.96671 38261 ft 459 kts 315°
2026-05-04 11:47 -29.31224 134.91833 38256 ft 458 kts 316°
2026-05-04 11:47 -29.26465 134.87049 38263 ft 457 kts 316°
2026-05-04 11:48 -29.21684 134.82248 38258 ft 456 kts 316°
2026-05-04 11:48 -29.16906 134.77458 38250 ft 455 kts 316°
2026-05-04 11:49 -29.12139 134.72684 38257 ft 455 kts 316°
2026-05-04 11:49 -29.07365 134.67909 38251 ft 456 kts 316°
2026-05-04 11:50 -29.02579 134.63128 38239 ft 457 kts 316°
2026-05-04 11:50 -28.97801 134.58362 38266 ft 457 kts 316°
2026-05-04 11:51 -28.92995 134.53575 38274 ft 459 kts 316°
2026-05-04 11:51 -28.88200 134.48818 38252 ft 459 kts 316°
2026-05-04 11:52 -28.83405 134.44060 38261 ft 456 kts 316°
2026-05-04 11:52 -28.78619 134.39319 38278 ft 457 kts 316°
2026-05-04 11:53 -28.73804 134.34556 38279 ft 458 kts 316°
2026-05-04 11:53 -28.69004 134.29814 38268 ft 456 kts 316°
2026-05-04 11:55 -28.49801 134.10899 38266 ft 455 kts 316°
2026-05-04 11:56 -28.45034 134.06217 38266 ft 456 kts 316°
2026-05-04 11:56 -28.40229 134.01505 38272 ft 456 kts 316°
2026-05-04 11:57 -28.35411 133.96785 38273 ft 458 kts 316°
2026-05-04 11:57 -28.30574 133.92054 38279 ft 458 kts 316°
2026-05-04 11:58 -28.25749 133.87341 38269 ft 457 kts 316°
2026-05-04 11:58 -28.20961 133.82668 38279 ft 456 kts 316°
2026-05-04 11:59 -28.16142 133.77971 38274 ft 458 kts 316°
2026-05-04 11:59 -28.11307 133.73265 38289 ft 458 kts 316°
2026-05-04 12:00 -28.06468 133.68560 38287 ft 457 kts 316°
2026-05-04 12:00 -28.01631 133.63864 38286 ft 457 kts 316°
2026-05-04 12:01 -27.96794 133.59172 38281 ft 458 kts 316°
2026-05-04 12:02 -27.79934 133.42865 38275 ft 456 kts 316°
2026-05-04 12:03 -27.75091 133.38194 38283 ft 459 kts 316°
2026-05-04 12:03 -27.70228 133.33510 38288 ft 459 kts 316°
2026-05-04 12:04 -27.65362 133.28827 38274 ft 459 kts 316°
2026-05-04 12:04 -27.60512 133.24167 38278 ft 457 kts 316°
2026-05-04 12:05 -27.55669 133.19517 38278 ft 458 kts 316°
2026-05-04 12:05 -27.50801 133.14850 38281 ft 460 kts 316°
2026-05-04 12:06 -27.45939 133.10195 38279 ft 458 kts 316°
2026-05-04 12:06 -27.41080 133.05548 38281 ft 458 kts 316°
2026-05-04 12:07 -27.36227 133.00912 38286 ft 458 kts 316°
2026-05-04 12:07 -27.31380 132.96287 38282 ft 459 kts 316°
2026-05-04 12:08 -27.26516 132.91652 38284 ft 457 kts 316°
2026-05-04 12:08 -27.21652 132.87021 38282 ft 457 kts 316°
2026-05-04 12:09 -27.16820 132.82428 38269 ft 457 kts 316°
2026-05-04 12:09 -27.11968 132.77820 38290 ft 456 kts 316°
2026-05-04 12:10 -27.07119 132.73220 38293 ft 456 kts 316°
2026-05-04 12:10 -27.02271 132.68628 38296 ft 456 kts 316°
2026-05-04 12:11 -26.97423 132.64040 38293 ft 455 kts 316°
2026-05-04 12:11 -26.92578 132.59460 38302 ft 456 kts 316°
2026-05-04 12:12 -26.87727 132.54889 38306 ft 459 kts 316°
2026-05-04 12:12 -26.82832 132.50282 38287 ft 458 kts 316°
2026-05-04 12:14 -26.63387 132.32029 38294 ft 456 kts 316°
2026-05-04 12:15 -26.58522 132.27474 38292 ft 456 kts 316°
2026-05-04 12:15 -26.53656 132.22925 38292 ft 456 kts 316°
2026-05-04 12:16 -26.48791 132.18383 38299 ft 455 kts 316°
2026-05-04 12:16 -26.43944 132.13860 38301 ft 457 kts 316°
2026-05-04 12:17 -26.39057 132.09308 38300 ft 458 kts 316°
2026-05-04 12:17 -26.34993 132.05525 38301 ft 458 kts 316°
2026-05-04 12:18 -26.29281 132.00215 38288 ft 456 kts 316°
2026-05-04 12:18 -26.25232 131.96454 38289 ft 456 kts 316°
2026-05-04 12:19 -26.20349 131.91925 38294 ft 457 kts 316°
2026-05-04 12:19 -26.15463 131.87397 38295 ft 457 kts 316°
2026-05-04 12:20 -26.10573 131.82871 38297 ft 458 kts 316°
2026-05-04 12:20 -26.05663 131.78332 38293 ft 459 kts 316°
2026-05-04 12:21 -26.00740 131.73785 38297 ft 461 kts 316°
2026-05-04 12:21 -25.95825 131.69254 38284 ft 457 kts 316°
2026-05-04 12:22 -25.90944 131.64753 38274 ft 456 kts 316°
2026-05-04 12:22 -25.86061 131.60260 38279 ft 456 kts 316°
2026-05-04 12:23 -25.81203 131.55793 38265 ft 456 kts 316°
2026-05-04 12:23 -25.76322 131.51310 38276 ft 456 kts 316°
2026-05-04 12:24 -25.71426 131.46819 38276 ft 456 kts 316°
2026-05-04 12:24 -25.66525 131.42328 38276 ft 457 kts 316°
2026-05-04 12:25 -25.61616 131.37836 38256 ft 456 kts 315°
2026-05-04 12:25 -25.56728 131.33366 38280 ft 455 kts 315°
2026-05-04 12:26 -25.51866 131.28925 38263 ft 457 kts 315°
2026-05-04 12:26 -25.46956 131.24445 38266 ft 458 kts 316°
2026-05-04 12:27 -25.42046 131.19973 38261 ft 455 kts 315°
2026-05-04 12:27 -25.37161 131.15524 38265 ft 454 kts 315°
2026-05-04 12:28 -25.32277 131.11082 38248 ft 455 kts 315°
2026-05-04 12:28 -25.27378 131.06633 38255 ft 456 kts 315°
2026-05-04 12:29 -25.22469 131.02178 38252 ft 456 kts 315°
2026-05-04 12:29 -25.17565 130.97732 38248 ft 456 kts 315°
2026-05-04 12:30 -25.12846 130.93096 38253 ft 454 kts 313°
2026-05-04 12:30 -25.08119 130.88455 38249 ft 455 kts 313°
2026-05-04 12:31 -25.03429 130.83833 38250 ft 455 kts 313°
2026-05-04 12:31 -24.98701 130.79193 38249 ft 455 kts 313°
2026-05-04 12:32 -24.91612 130.72236 38235 ft 454 kts 313°
2026-05-04 12:33 -24.86909 130.67626 38240 ft 452 kts 313°
2026-05-04 12:33 -24.82209 130.63025 38236 ft 452 kts 313°
2026-05-04 12:34 -24.77502 130.58422 38233 ft 452 kts 313°
2026-05-04 12:34 -24.72802 130.53832 38238 ft 451 kts 313°
2026-05-04 12:35 -24.68111 130.49253 38235 ft 451 kts 313°
2026-05-04 12:35 -24.63445 130.44705 38241 ft 452 kts 313°
2026-05-04 12:36 -24.58723 130.40107 38241 ft 453 kts 313°
2026-05-04 12:36 -24.54002 130.35516 38223 ft 452 kts 312°
2026-05-04 12:37 -24.49291 130.30937 38224 ft 451 kts 312°
2026-05-04 12:37 -24.44586 130.26370 38223 ft 451 kts 313°
2026-05-04 12:38 -24.39869 130.21795 38231 ft 453 kts 312°
2026-05-04 12:38 -24.35145 130.17219 38231 ft 454 kts 312°
2026-05-04 12:39 -24.30436 130.12663 38224 ft 454 kts 312°
2026-05-04 12:39 -24.25694 130.08079 38222 ft 454 kts 312°
2026-05-04 12:40 -24.20946 130.03493 38223 ft 454 kts 313°
2026-05-04 12:40 -24.16198 129.98914 38216 ft 454 kts 312°
2026-05-04 12:41 -24.11487 129.94373 38210 ft 454 kts 312°
2026-05-04 12:41 -24.06743 129.89806 38208 ft 454 kts 312°
2026-05-04 12:42 -24.02002 129.85246 38205 ft 453 kts 312°
2026-05-04 12:42 -23.97266 129.80697 38208 ft 452 kts 312°
2026-05-04 12:43 -23.92526 129.76145 38213 ft 454 kts 312°
2026-05-04 12:43 -23.87771 129.71588 38212 ft 455 kts 312°
2026-05-04 12:44 -23.83014 129.67030 38212 ft 455 kts 312°
2026-05-04 12:44 -23.78288 129.62510 38198 ft 453 kts 312°
2026-05-04 12:45 -23.73542 129.57971 38193 ft 452 kts 312°
2026-05-04 12:45 -23.68799 129.53443 38203 ft 454 kts 312°
2026-05-04 12:46 -23.64028 129.48890 38199 ft 456 kts 312°
2026-05-04 12:46 -23.59261 129.44350 38189 ft 453 kts 311°
2026-05-04 12:47 -23.54512 129.39825 38182 ft 453 kts 311°
2026-05-04 12:47 -23.49763 129.35311 38178 ft 453 kts 311°
2026-05-04 12:48 -23.45009 129.30791 38190 ft 455 kts 311°
2026-05-04 12:48 -23.40235 129.26262 38183 ft 455 kts 311°
2026-05-04 12:49 -23.35502 129.21773 38172 ft 453 kts 311°
2026-05-04 12:49 -23.30748 129.17269 38173 ft 453 kts 311°
2026-05-04 12:50 -23.26004 129.12780 38173 ft 452 kts 311°
2026-05-04 12:50 -23.21249 129.08283 38177 ft 454 kts 311°
2026-05-04 12:51 -23.16464 129.03764 38179 ft 455 kts 311°
2026-05-04 12:51 -23.11675 128.99245 38171 ft 456 kts 311°
2026-05-04 12:52 -23.06878 128.94723 38170 ft 456 kts 311°
2026-05-04 12:52 -23.02119 128.90243 38161 ft 454 kts 311°
2026-05-04 12:53 -22.97341 128.85745 38168 ft 455 kts 310°
2026-05-04 12:53 -22.92539 128.81232 38171 ft 457 kts 311°
2026-05-04 12:54 -22.87737 128.76726 38166 ft 455 kts 310°
2026-05-04 12:54 -22.82956 128.72240 38156 ft 453 kts 310°
2026-05-04 12:55 -22.78219 128.67799 38147 ft 453 kts 310°
2026-05-04 12:55 -22.73440 128.63325 38162 ft 454 kts 310°
2026-05-04 12:56 -22.68638 128.58833 38161 ft 455 kts 310°
2026-05-04 12:56 -22.63840 128.54351 38143 ft 456 kts 310°
2026-05-04 12:57 -22.59085 128.49914 38150 ft 453 kts 310°
2026-05-04 12:57 -22.54313 128.45461 38149 ft 452 kts 310°
2026-05-04 12:58 -22.49537 128.41012 38147 ft 452 kts 310°
2026-05-04 12:58 -22.44767 128.36571 38146 ft 453 kts 310°
2026-05-04 12:59 -22.39989 128.32128 38148 ft 453 kts 310°
2026-05-04 12:59 -22.35210 128.27688 38148 ft 453 kts 310°
2026-05-04 13:00 -22.30418 128.23240 38165 ft 454 kts 310°
2026-05-04 13:00 -22.25629 128.18798 38159 ft 454 kts 310°
2026-05-04 13:01 -22.20862 128.14381 38155 ft 454 kts 310°
2026-05-04 13:01 -22.16077 128.09953 38151 ft 453 kts 310°
2026-05-04 13:02 -22.11294 128.05529 38154 ft 453 kts 310°
2026-05-04 13:02 -22.06512 128.01111 38145 ft 453 kts 310°
2026-05-04 13:03 -22.01720 127.96688 38133 ft 452 kts 310°
2026-05-04 13:03 -21.96933 127.92272 38149 ft 454 kts 310°
2026-05-04 13:04 -21.92121 127.87839 38151 ft 455 kts 310°
2026-05-04 13:04 -21.87304 127.83406 38147 ft 455 kts 310°
2026-05-04 13:05 -21.82497 127.78984 38151 ft 455 kts 310°
2026-05-04 13:05 -21.78507 127.75321 38134 ft 453 kts 310°
2026-05-04 13:06 -21.73726 127.70928 38139 ft 452 kts 309°
2026-05-04 13:06 -21.68917 127.66515 38139 ft 455 kts 309°
2026-05-04 13:07 -21.64097 127.62100 38138 ft 455 kts 309°
2026-05-04 13:07 -21.59268 127.57679 38131 ft 454 kts 309°
2026-05-04 13:08 -21.54469 127.53288 38126 ft 453 kts 309°
2026-05-04 13:08 -21.49706 127.48934 38124 ft 452 kts 309°
2026-05-04 13:09 -21.44910 127.44555 38122 ft 453 kts 309°
2026-05-04 13:09 -21.40099 127.40165 38125 ft 454 kts 309°
2026-05-04 13:10 -21.35288 127.35782 38136 ft 453 kts 309°
2026-05-04 13:10 -21.30477 127.31398 38134 ft 454 kts 309°
2026-05-04 13:11 -21.25654 127.27011 38137 ft 455 kts 309°
2026-05-04 13:11 -21.20829 127.22626 38122 ft 454 kts 309°
2026-05-04 13:12 -21.16015 127.18252 38117 ft 453 kts 309°
2026-05-04 13:12 -21.11213 127.13894 38111 ft 453 kts 309°
2026-05-04 13:13 -21.06406 127.09536 38114 ft 452 kts 309°
2026-05-04 13:13 -21.01597 127.05179 38108 ft 452 kts 309°
2026-05-04 13:14 -20.96794 127.00832 38062 ft 452 kts 309°
2026-05-04 13:14 -20.91997 126.96494 38108 ft 453 kts 309°
2026-05-04 13:15 -20.87176 126.92138 38109 ft 454 kts 309°
2026-05-04 13:15 -20.82345 126.87777 38119 ft 454 kts 309°
2026-05-04 13:16 -20.77546 126.83448 38109 ft 454 kts 309°
2026-05-04 13:16 -20.72721 126.79101 38111 ft 453 kts 309°
2026-05-04 13:17 -20.67887 126.74746 38110 ft 454 kts 309°
2026-05-04 13:17 -20.63051 126.70396 38113 ft 455 kts 309°
2026-05-04 13:18 -20.58191 126.66028 38107 ft 456 kts 309°
2026-05-04 13:18 -20.53342 126.61675 38108 ft 454 kts 309°
2026-05-04 13:19 -20.48518 126.57344 38098 ft 453 kts 309°
2026-05-04 13:19 -20.43716 126.53039 38098 ft 454 kts 309°
2026-05-04 13:20 -20.38870 126.48699 38096 ft 455 kts 309°
2026-05-04 13:20 -20.34016 126.44354 38096 ft 456 kts 309°
2026-05-04 13:21 -20.29154 126.40008 38096 ft 455 kts 309°
2026-05-04 13:21 -20.24307 126.35676 38095 ft 454 kts 309°
2026-05-04 13:22 -20.19465 126.31353 38090 ft 454 kts 309°
2026-05-04 13:22 -20.14625 126.27036 38085 ft 453 kts 309°
2026-05-04 13:23 -20.09792 126.22729 38087 ft 453 kts 309°
2026-05-04 13:23 -20.05140 126.18336 38091 ft 450 kts 307°
2026-05-04 13:24 -20.00493 126.13848 38091 ft 452 kts 307°
2026-05-04 13:24 -19.95839 126.09354 38088 ft 452 kts 307°
2026-05-04 13:25 -19.88847 126.02611 38087 ft 451 kts 307°
2026-05-04 13:25 -19.84197 125.98129 38084 ft 451 kts 307°
2026-05-04 13:26 -19.79539 125.93644 38086 ft 452 kts 307°
2026-05-04 13:26 -19.74898 125.89181 38082 ft 452 kts 307°
2026-05-04 13:27 -19.70242 125.84705 38081 ft 451 kts 307°
2026-05-04 13:27 -19.65590 125.80237 38074 ft 451 kts 307°
2026-05-04 13:28 -19.60946 125.75780 38072 ft 450 kts 308°
2026-05-04 13:28 -19.56292 125.71317 38070 ft 451 kts 308°
2026-05-04 13:29 -19.51629 125.66849 38071 ft 453 kts 308°
2026-05-04 13:29 -19.46946 125.62367 38073 ft 454 kts 308°
2026-05-04 13:30 -19.42267 125.57893 38070 ft 452 kts 308°
2026-05-04 13:30 -19.37606 125.53437 38070 ft 451 kts 308°
2026-05-04 13:31 -19.32941 125.48983 38071 ft 451 kts 308°
2026-05-04 13:31 -19.28307 125.44560 38078 ft 452 kts 308°
2026-05-04 13:32 -19.23632 125.40103 38075 ft 453 kts 308°
2026-05-04 13:32 -19.18950 125.35643 38074 ft 452 kts 308°
2026-05-04 13:33 -19.14270 125.31187 38058 ft 452 kts 308°
2026-05-04 13:33 -19.09583 125.26729 38059 ft 453 kts 308°
2026-05-04 13:34 -19.04913 125.22293 38055 ft 452 kts 308°
2026-05-04 13:34 -19.00247 125.17860 38049 ft 450 kts 308°
2026-05-04 13:35 -18.93257 125.11227 38048 ft 451 kts 309°
2026-05-04 13:36 -18.88567 125.06782 38047 ft 454 kts 309°
2026-05-04 13:36 -18.83866 125.02332 38051 ft 453 kts 309°
2026-05-04 13:37 -18.79199 124.97914 38058 ft 453 kts 309°
2026-05-04 13:37 -18.74499 124.93470 38058 ft 454 kts 309°
2026-05-04 13:38 -18.69794 124.89024 38035 ft 454 kts 309°
2026-05-04 13:38 -18.65084 124.84579 38038 ft 454 kts 309°
2026-05-04 13:39 -18.60367 124.80128 38028 ft 455 kts 309°
2026-05-04 13:39 -18.55650 124.75683 38027 ft 454 kts 309°
2026-05-04 13:40 -18.50948 124.71253 38027 ft 453 kts 309°
2026-05-04 13:40 -18.46248 124.66828 38036 ft 453 kts 309°
2026-05-04 13:41 -18.41558 124.62418 38037 ft 455 kts 309°
2026-05-04 13:41 -18.36830 124.57976 38039 ft 455 kts 309°
2026-05-04 13:42 -18.29761 124.51339 38031 ft 453 kts 309°
2026-05-04 13:42 -18.25055 124.46926 38030 ft 452 kts 309°
2026-05-04 13:43 -18.20354 124.42518 38023 ft 454 kts 310°
2026-05-04 13:43 -18.15633 124.38097 38028 ft 455 kts 310°
2026-05-04 13:44 -18.10904 124.33672 38026 ft 455 kts 310°
2026-05-04 13:44 -18.06174 124.29249 38029 ft 454 kts 310°
2026-05-04 13:45 -18.01453 124.24837 38029 ft 454 kts 310°
2026-05-04 13:45 -17.96726 124.20424 38029 ft 454 kts 310°
2026-05-04 13:46 -17.92032 124.16045 38025 ft 453 kts 310°
2026-05-04 13:46 -17.87323 124.11654 38021 ft 452 kts 310°
2026-05-04 13:47 -17.82627 124.07279 38016 ft 451 kts 310°
2026-05-04 13:47 -17.77931 124.02907 38006 ft 450 kts 310°
2026-05-04 13:48 -17.73231 123.98533 38009 ft 453 kts 310°
2026-05-04 13:48 -17.68538 123.94172 38010 ft 454 kts 310°
2026-05-04 13:49 -17.63813 123.89783 38003 ft 452 kts 310°
2026-05-04 13:49 -17.59106 123.85410 38001 ft 450 kts 309°
2026-05-04 13:50 -17.55432 123.81600 38011 ft 448 kts 307°